TimeEDT,TemperatureF,Dew PointF,Humidity,Sea Level PressureIn,VisibilityMPH,Wind Direction,Wind SpeedMPH,Gust SpeedMPH,PrecipitationIn,Events,Conditions,WindDirDegrees,DateUTC
12:53 AM,77.0,72.0,84,29.84,9.0,WSW,8.1,-,N/A,,Clear,250,2013-08-29 04:53:00
1:53 AM,75.9,71.1,85,29.83,8.0,WSW,5.8,-,N/A,,Scattered Clouds,250,2013-08-29 05:53:00
2:53 AM,75.0,71.1,87,29.84,6.0,West,4.6,-,N/A,,Scattered Clouds,260,2013-08-29 06:53:00
3:53 AM,75.9,71.1,85,29.84,9.0,West,3.5,-,N/A,,Overcast,260,2013-08-29 07:53:00
4:53 AM,75.0,70.0,84,29.84,9.0,West,5.8,-,N/A,,Scattered Clouds,270,2013-08-29 08:53:00
5:53 AM,75.0,70.0,84,29.84,8.0,WNW,4.6,-,N/A,,Clear,300,2013-08-29 09:53:00
6:53 AM,73.9,70.0,87,29.87,9.0,West,5.8,-,N/A,,Partly Cloudy,280,2013-08-29 10:53:00
7:53 AM,73.9,70.0,87,29.91,7.0,ENE,3.5,-,N/A,,Overcast,70,2013-08-29 11:53:00
8:53 AM,75.9,71.1,85,29.93,8.0,ENE,3.5,-,N/A,,Overcast,60,2013-08-29 12:53:00
9:53 AM,77.0,72.0,84,29.94,9.0,NE,4.6,-,N/A,,Overcast,50,2013-08-29 13:53:00
10:53 AM,81.0,71.1,72,29.94,10.0,NE,11.5,-,N/A,,Mostly Cloudy,40,2013-08-29 14:53:00
11:24 AM,80.6,71.6,74,29.98,10.0,NNE,6.9,-,N/A,,Mostly Cloudy,30,2013-08-29 15:24:00
11:32 AM,80.6,71.6,74,29.98,10.0,NE,11.5,-,N/A,,Mostly Cloudy,40,2013-08-29 15:32:00
11:53 AM,81.0,71.1,72,29.95,10.0,NE,11.5,-,N/A,,Overcast,40,2013-08-29 15:53:00
12:53 PM,82.0,71.1,69,29.95,10.0,NE,11.5,-,N/A,,Mostly Cloudy,40,2013-08-29 16:53:00
1:53 PM,84.0,71.1,65,29.94,10.0,NE,8.1,-,N/A,,Mostly Cloudy,50,2013-08-29 17:53:00
2:10 PM,82.4,71.6,70,29.98,10.0,ENE,6.9,-,N/A,,Mostly Cloudy,60,2013-08-29 18:10:00
2:53 PM,84.0,71.1,65,29.94,10.0,Variable,5.8,-,N/A,,Scattered Clouds,0,2013-08-29 18:53:00
3:53 PM,86.0,71.1,61,29.93,10.0,ENE,9.2,-,N/A,,Partly Cloudy,70,2013-08-29 19:53:00
4:53 PM,84.9,71.1,63,29.93,10.0,East,12.7,17.3,N/A,,Scattered Clouds,80,2013-08-29 20:53:00
5:53 PM,82.9,69.1,63,29.93,10.0,ENE,11.5,-,N/A,,Clear,60,2013-08-29 21:53:00
6:53 PM,81.0,69.1,67,29.94,10.0,ENE,6.9,-,N/A,,Clear,60,2013-08-29 22:53:00
7:53 PM,78.1,70.0,76,29.96,10.0,NE,5.8,-,N/A,,Clear,50,2013-08-29 23:53:00
8:53 PM,75.0,70.0,84,29.99,10.0,NNE,3.5,-,N/A,,Clear,30,2013-08-30 00:53:00
9:53 PM,73.0,69.1,87,30.00,10.0,NE,3.5,-,N/A,,Mostly Cloudy,50,2013-08-30 01:53:00
10:19 PM,75.2,69.8,83,30.03,10.0,NE,4.6,-,N/A,,Mostly Cloudy,40,2013-08-30 02:19:00
10:53 PM,75.0,70.0,84,30.01,10.0,Calm,Calm,-,N/A,,Overcast,0,2013-08-30 02:53:00
11:06 PM,75.2,69.8,83,30.04,10.0,Calm,Calm,-,N/A,,Overcast,0,2013-08-30 03:06:00
11:14 PM,75.2,71.6,89,30.05,10.0,Calm,Calm,-,N/A,,Overcast,0,2013-08-30 03:14:00
11:27 PM,75.2,69.8,83,30.05,10.0,Calm,Calm,-,N/A,,Overcast,0,2013-08-30 03:27:00
11:53 PM,73.0,70.0,90,30.02,10.0,Calm,Calm,-,N/A,,Partly Cloudy,0,2013-08-30 03:53:00